Weather History for Port Angeles, WA

Change the Weather History Date:

Thursday, January 31, 2013

  Actual Average Record
Temperature  
Mean Temperature 48 °F -  
Max Temperature 51 °F 46 °F 62 °F (1960)
Min Temperature 44 °F 33 °F 12 °F (1950)
Degree Days  
Heating Degree Days 18    
Moisture  
Dew Point 44 °F    
Average Humidity 88    
Maximum Humidity 93    
Minimum Humidity 80    
Precipitation  
Precipitation 0.00 in - - ()
Sea Level Pressure  
Sea Level Pressure 30.31 in    
Wind  
Wind Speed 5 mph (WNW)    
Max Wind Speed 12 mph    
Max Gust Speed -    
Visibility 10 miles    
Events Rain    
Averages and records for this station are not official NWS values.
T = Trace of Precipitation, MM = Missing Value Source: NWS Daily Summary

Daily Weather History Graph

Daily Weather History Graph

Search for Another Location

Airport:

Trip Planner

Search our weather history database for the weather conditions in past years. The results will help you decide how hot, cold, wet, or windy it might be!

Date:

Astronomy

Jan. 31, 2013 Rise Set
Actual Time 7:42 AM PST 5:12 PM PST
Civil Twilight 7:09 AM PST 5:46 PM PST
Nautical Twilight 6:32 AM PST 6:23 PM PST
Astronomical Twilight 5:55 AM PST 7:00 PM PST
Moon 10:50 PM PST (1/31) 9:19 AM PST (1/31)
Length of Visible Light 10h 36m
Length of Day
9h 30m
Waning Gibbous, 79% of the Moon is Illuminated
Jan 31
Waning Gibbous
Feb 3
Last Quarter
Feb 9
New
Feb 17
First Quarter
Feb 25
Full

Hourly Weather History & Observations

Time (PST) Temp. Windchill Dew Point Humidity Pressure Visibility Wind Dir Wind Speed Gust Speed Precip Events Conditions
12:53 AM 48.0 °F - 44.1 °F 86% 30.37 in 10.0 mi WSW 11.5 mph - N/A   Overcast
1:53 AM 46.9 °F - 43.0 °F 86% 30.36 in 10.0 mi West 9.2 mph - N/A   Mostly Cloudy
2:53 AM 46.9 °F - 43.0 °F 86% 30.36 in 10.0 mi West 8.1 mph - 0.00 in Rain Light Rain
3:53 AM 45.0 °F 43.5 °F 42.1 °F 90% 30.36 in 10.0 mi ESE 3.5 mph - 0.00 in   Scattered Clouds
4:53 AM 46.9 °F - 42.1 °F 83% 30.35 in 10.0 mi Variable 3.5 mph - N/A   Overcast
5:53 AM 44.1 °F - 42.1 °F 93% 30.34 in 10.0 mi Calm Calm - N/A   Mostly Cloudy
6:53 AM 44.1 °F - 42.1 °F 93% 30.33 in 10.0 mi Calm Calm - N/A   Overcast
7:53 AM 44.1 °F - 42.1 °F 93% 30.32 in 10.0 mi Calm Calm - 0.00 in Rain Light Rain
8:53 AM 45.0 °F 43.5 °F 43.0 °F 93% 30.32 in 10.0 mi South 3.5 mph - 0.00 in Rain Light Rain
9:53 AM 46.9 °F - 45.0 °F 93% 30.30 in 10.0 mi Calm Calm - 0.00 in   Overcast
10:53 AM 50.0 °F - 46.0 °F 86% 30.32 in 10.0 mi Variable 4.6 mph - N/A   Overcast
11:31 AM 48.0 °F - 45.0 °F 89% 30.30 in 10.0 mi NNW 3.5 mph - N/A   Overcast
11:46 AM 48.0 °F - 45.0 °F 89% 30.29 in 10.0 mi Calm Calm - N/A   Mostly Cloudy
11:53 AM 48.0 °F - 44.1 °F 86% 30.30 in 10.0 mi Calm Calm - N/A   Mostly Cloudy
12:41 PM 51.1 °F - 46.0 °F 83% 30.28 in 10.0 mi NW 4.6 mph - N/A   Mostly Cloudy
12:51 PM 50.0 °F - 44.6 °F 82% 30.28 in 10.0 mi Variable 4.6 mph - N/A   Mostly Cloudy
12:53 PM 50.0 °F - 45.0 °F 83% 30.28 in 10.0 mi Variable 4.6 mph - N/A   Mostly Cloudy
1:01 PM 50.0 °F - 44.1 °F 80% 30.28 in 10.0 mi WNW 5.8 mph - N/A   Overcast
1:13 PM 50.0 °F - 45.0 °F 83% 30.28 in 10.0 mi North 3.5 mph - N/A   Overcast
1:53 PM 48.9 °F - 44.1 °F 83% 30.29 in 10.0 mi North 5.8 mph - N/A   Overcast
2:07 PM 48.9 °F - 44.1 °F 83% 30.28 in 10.0 mi North 3.5 mph - N/A   Overcast
2:48 PM 48.2 °F - 44.6 °F 87% 30.28 in 10.0 mi Calm Calm - N/A   Overcast
2:53 PM 48.0 °F - 45.0 °F 89% 30.29 in 10.0 mi Calm Calm - N/A   Overcast
3:23 PM 50.0 °F - 45.0 °F 83% 30.28 in 10.0 mi Calm Calm - N/A   Overcast
3:53 PM 50.0 °F - 44.1 °F 80% 30.29 in 10.0 mi Calm Calm - N/A   Overcast
4:10 PM 50.0 °F - 44.1 °F 80% 30.29 in 10.0 mi Calm Calm - N/A   Overcast
4:34 PM 48.9 °F - 45.0 °F 86% 30.29 in 10.0 mi Calm Calm - N/A   Overcast
4:53 PM 48.0 °F - 45.0 °F 89% 30.30 in 10.0 mi Calm Calm - N/A   Overcast
5:23 PM 48.0 °F - 45.0 °F 89% 30.30 in 10.0 mi NW 4.6 mph - N/A   Overcast
5:42 PM 46.9 °F - 45.0 °F 93% 30.30 in 10.0 mi WNW 6.9 mph - N/A   Overcast
5:53 PM 46.9 °F - 45.0 °F 93% 30.30 in 10.0 mi NW 6.9 mph - N/A   Overcast
6:53 PM 46.0 °F 41.9 °F 44.1 °F 93% 30.31 in 10.0 mi NW 8.1 mph - N/A   Overcast
7:16 PM 46.0 °F 41.4 °F 44.1 °F 93% 30.31 in 9.0 mi NW 9.2 mph - N/A   Overcast
7:53 PM 45.0 °F 41.2 °F 43.0 °F 93% 30.32 in 7.0 mi WNW 6.9 mph - N/A   Overcast
8:14 PM 45.0 °F 40.6 °F 43.0 °F 93% 30.31 in 10.0 mi West 8.1 mph - N/A   Overcast
8:30 PM 45.0 °F 41.8 °F 43.0 °F 93% 30.31 in 10.0 mi West 5.8 mph - N/A   Overcast
8:50 PM 44.6 °F 40.2 °F 42.8 °F 93% 30.31 in 10.0 mi West 8.1 mph - N/A   Overcast
8:53 PM 45.0 °F 41.2 °F 42.1 °F 90% 30.32 in 10.0 mi West 6.9 mph - N/A   Overcast
9:53 PM 44.1 °F 42.5 °F 42.1 °F 93% 30.32 in 10.0 mi WNW 3.5 mph - N/A   Overcast
10:53 PM 45.0 °F 42.6 °F 42.1 °F 90% 30.33 in 10.0 mi West 4.6 mph - N/A   Overcast
11:21 PM 44.1 °F 42.5 °F 41.0 °F 89% 30.33 in 10.0 mi WSW 3.5 mph - N/A   Overcast
11:53 PM 44.1 °F - 41.0 °F 89% 30.35 in 10.0 mi Calm Calm - N/A   Overcast